Location: *
(46.3500°N, 10.9000°E)
Time: 09:23:06
(UTC+00:00)

Cosmos 407 Rocket - Pass Details

Date: 09 April 2020
Orbit: 743 x 787 km, 74.1° (Epoch: 23 May)

Event Time Altitude Azimuth Distance (km) Brightness Sun altitude
Rises 19:02:37 0° 202° (SSW) 3,186 6.7 -11.6°
Reaches altitude 10° 19:04:58 10° 204° (SSW) 2,261 5.9 -12.0°
Maximum altitude 19:10:06 82° 292° (WNW) 759 3.5 -12.8°
Drops below altitude 10° 19:15:14 10° 20° (NNE) 2,267 6.0 -13.6°
Sets 19:17:36 0° 22° (NNE) 3,195 6.8 -13.9°
